[[{"header":{"parameterUnit":"m.s-1","parameterCategory":1,"la1":30.2991,"la2":30.254,"lo1":-89.0895,"lo2":-89.0444,"dy":0.0017,"dx":0.0017,"nx":28,"ny":28,"refTime":"2024-03-07T03:00:00:Z","depth":0,"parameterNumber":2,"parameterNumberName":"U-component_of_WINDS"},"data":[0,0,0,0,0,0,0,0,0,0,0,0,0,0,0,0,0,0,0,0,0,0,0,0,0,0,0,0,0,0,0,0,0,0,0,0,0,0,0,0,0,0,0,0,0,0,0,0,0,0,0,0,0,0,0,0,0,0,-5.5288,-5.5289,0,-5.5437,-5.5439,-5.5441,-5.5441,-5.5439,-5.5438,-5.5436,-5.5586,-5.5592,-5.5598,0,0,0,0,0,0,0,0,0,0,0,0,0,-5.5,-5.5005,-5.5287,-5.5289,-5.5291,-5.5437,-5.5439,-5.5441,-5.5442,-5.5439,-5.5437,-5.5435,-5.5584,-5.5591,-5.5598,0,0,0,0,0,0,0,0,0,0,0,0,0,-5.5135,-5.5007,-5.5287,-5.5309,-5.5313,-5.5437,-5.5439,-5.5442,-5.5442,-5.5439,-5.5436,-5.5434,-5.5582,-5.559,-5.5599,-5.571,0,0,-5.5626,-5.5629,0,0,0,0,0,0,0,0,-5.5127,-5.5145,-5.5304,-5.5308,-5.5312,-5.5418,-5.5393,-5.5532,-5.5443,-5.5393,-5.5436,-5.5432,-5.5532,-5.5545,-5.5579,-5.5717,-5.5724,-5.5626,-5.5632,-5.5635,-5.5638,0,0,0,0,0,0,0,-5.5118,-5.5139,-5.5347,-5.5306,-5.5311,-5.5311,-5.5327,-5.5419,-5.5477,-5.5397,-5.5397,-5.5415,-5.5534,-5.5571,-5.5583,-5.5726,-5.5626,-5.5634,-5.5639,-5.5643,-5.5964,-5.5967,0,0,0,0,0,0,-5.5104,-5.5131,-5.5342,-5.5351,-5.5211,-5.5318,-5.5336,-5.5387,-5.5476,-5.5487,-5.5418,-5.5415,-5.5557,-5.5573,-5.5588,-5.5723,-5.5635,-5.5644,-5.5648,-5.596,-5.5964,-5.5968,0,0,0,0,0,0,-5.5098,-5.5123,-5.5336,-5.5241,-5.5268,-5.5327,-5.5383,-5.5391,-5.5428,-5.5492,-5.5501,-5.5445,-5.5556,-5.5576,-5.568,-5.5729,-5.5647,-5.5655,-5.5956,-5.5962,-5.5966,-5.5995,0,0,0,0,0,0,-5.509,-5.5121,-5.5164,-5.5242,-5.5273,-5.5426,-5.5386,-5.5396,-5.5443,-5.5441,-5.552,-5.553,-5.5555,-5.5667,-5.5689,-5.5739,-5.5662,-5.5952,-5.5959,-5.5965,-5.599,-5.6001,-5.601,0,0,0,0,0,-5.5079,-5.5165,-5.5166,-5.5191,-5.5329,-5.5429,-5.5446,-5.5474,-5.5447,-5.5491,-5.5532,-5.5527,-5.5721,-5.5678,-5.5702,-5.5756,-5.5949,-5.5957,-5.5964,-5.5986,-5.5999,-5.6009,0,0,0,0,0,0,-5.5089,-5.5176,-5.5177,-5.5291,-5.5353,-5.5428,-5.5484,-5.5487,-5.5556,-5.5551,-5.5582,-5.56,-5.5704,-5.5741,-5.5692,-5.5869,-5.5832,-5.5844,-5.584,-5.5853,-5.5862,-5.5849,-5.5669,0,0,0,0,0,-5.5105,-5.5179,-5.5251,-5.5345,-5.5376,-5.5425,-5.5469,-5.5486,-5.555,-5.5576,-5.5625,-5.5687,-5.5761,-5.581,-5.5882,-5.5997,-5.6014,-5.6046,-5.6056,-5.6064,-5.6073,-5.6136,-5.6151,-5.5992,-5.5992,-5.5992,0,0,-5.5137,-5.5194,-5.5238,-5.5348,-5.5398,-5.5473,-5.5446,-5.5528,-5.5584,-5.5588,-5.5689,-5.5728,-5.5799,-5.5909,-5.596,-5.5943,-5.6121,-5.6073,-5.6079,-5.6084,-5.6145,-5.616,-5.6174,-5.5997,-5.5997,-5.5996,0,0,-5.5234,-5.5285,-5.5368,-5.542,-5.5496,-5.5528,-5.5548,-5.5625,-5.5651,-5.5754,-5.5758,-5.5826,-5.5954,-5.6005,-5.6047,-5.6167,-5.6165,-5.6191,-5.6239,-5.6301,-5.6313,-5.6324,-5.6365,-5.638,-5.62,-5.6201,-5.6201,0,-5.5263,-5.5378,-5.541,-5.5493,-5.554,-5.555,-5.5634,-5.5682,-5.5778,-5.581,-5.5791,-5.5953,-5.6002,-5.6123,-5.6153,-5.6188,-5.6211,-5.6179,-5.6309,-5.6321,-5.6331,-5.6371,-5.6386,-5.6203,-5.6203,-5.6202,-5.6202,0,-5.5411,-5.5491,-5.5549,-5.5642,-5.5697,-5.578,-5.5824,-5.5876,-5.5889,-5.5924,-5.6028,-5.6088,-5.6173,-5.6204,-5.6217,-5.6328,-5.6315,-5.6303,-5.6265,-5.6348,-5.6386,-5.6401,-5.6206,-5.6205,-5.6205,-5.6204,0,0,-5.5513,-5.5626,-5.5646,-5.5689,-5.5775,-5.5837,-5.5921,-5.6006,-5.6049,-5.6116,-5.6185,-5.6296,-5.6285,-5.6333,-5.6353,-5.6407,-5.6497,-5.6388,-5.639,-5.6403,-5.6621,-5.6628,-5.6645,-5.6498,-5.6501,-5.6503,-5.6614,0,-5.5617,-5.5766,-5.5799,-5.5927,-5.6001,-5.6013,-5.6086,-5.6147,-5.6183,-5.625,-5.629,-5.6367,-5.6348,-5.6377,-5.6432,-5.6474,-5.654,-5.6467,-5.6561,-5.6564,-5.6539,-5.6664,-5.6671,-5.6773,-5.6629,-5.6632,-5.6634,0,-5.5757,-5.5828,-5.5964,-5.6042,-5.6074,-5.6139,-5.6219,-5.6285,-5.6354,-5.6377,-5.6432,-5.6447,-5.6534,-5.6496,-5.6616,-5.6566,-5.6607,-5.6635,-5.6639,-5.6646,-5.6601,-5.6672,-5.6806,-5.682,-5.6657,-5.6656,-5.6654,0,-5.5815,-5.5945,-5.6043,-5.608,-5.6174,-5.6219,-5.626,-5.6327,-5.6376,-5.6447,-5.6479,-5.6559,-5.6602,-5.6663,-5.6699,-5.6668,-5.6816,-5.6781,-5.6835,-5.6834,-5.6862,-5.6859,-5.7002,-5.6895,-5.6894,-5.6894,-5.6894,0,-5.5925,-5.6007,-5.6071,-5.613,-5.6223,-5.6261,-5.6351,-5.6392,-5.6452,-5.652,-5.6537,-5.66,-5.6645,-5.6715,-5.6744,-5.6838,-5.6858,-5.6877,-5.6883,-5.6874,-5.6871,-5.6898,-5.6891,-5.6898,-5.6897,-5.6896,-5.6896,0,-5.6003,-5.6049,-5.6157,-5.6238,-5.6261,-5.6325,-5.6394,-5.6453,-5.6491,-5.6576,-5.6599,-5.6657,-5.674,-5.6784,-5.6887,-5.6906,-5.7012,-5.7015,-5.6988,-5.699,-5.704,-5.7034,-5.7203,-5.7226,-5.7106,-5.7107,-5.7108,0,-5.6068,-5.6132,-5.6221,-5.6268,-5.6311,-5.6387,-5.6437,-5.6478,-5.653,-5.6616,-5.6664,-5.6749,-5.6817,-5.695,-5.7001,-5.708,-5.7084,-5.7138,-5.7096,-5.7084,-5.7082,-5.7076,-5.7082,-5.7144,-5.7145,-5.7146,-5.7147,0,-5.6179,-5.6199,-5.6272,-5.6354,-5.6414,-5.648,-5.6545,-5.6583,-5.6635,-5.6693,-5.6778,-5.6832,-5.6939,-5.7022,-5.7106,-5.7148,-5.7155,-5.7161,-5.7177,-5.7165,-5.7146,-5.7155,-5.7005,-5.7155,-5.7154,-5.7154,-5.7153,-5.7153,-5.6251,-5.6308,-5.638,-5.6461,-5.6515,-5.6576,-5.6635,-5.6681,-5.6754,-5.6844,-5.6865,-5.6955,-5.7025,-5.7138,-5.7183,-5.7254,-5.7243,-5.7267,-5.7272,-5.7277,-5.7278,-5.7138,-5.727,-5.727,-5.727,-5.727,-5.727,0,-5.6359,-5.6407,-5.6482,-5.6573,-5.6637,-5.6642,-5.6715,-5.6768,-5.6847,-5.6913,-5.6981,-5.708,-5.7162,-5.7221,-5.7304,-5.7349,-5.7355,-5.737,-5.7365,-5.7374,-5.7284,-5.7261,-5.7364,-5.7364,-5.7364,-5.7364,-5.7363,-5.7363,-5.6423,-5.652,-5.6549,-5.6673,-5.6721,-5.681,-5.6851,-5.6907,-5.696,-5.707,-5.7138,-5.7177,-5.724,-5.7328,-5.7403,-5.7419,-5.7447,-5.7461,-5.7476,-5.739,-5.738,-5.7371,-5.7348,-5.7468,-5.7468,-5.7559,-5.756,-5.7561]},{"header":{"parameterUnit":"m.s-1","parameterCategory":1,"la1":30.2991,"la2":30.254,"lo1":-89.0895,"lo2":-89.0444,"dy":0.0017,"dx":0.0017,"nx":28,"ny":28,"refTime":"2024-03-07T03:00:00:Z","depth":0,"parameterNumber":3,"parameterNumberName":"V-component_of_WINDS"},"data":[0,0,0,0,0,0,0,0,0,0,0,0,0,0,0,0,0,0,0,0,0,0,0,0,0,0,0,0,0,0,0,0,0,0,0,0,0,0,0,0,0,0,0,0,0,0,0,0,0,0,0,0,0,0,0,0,0,0,2.6894,2.6894,0,2.691,2.691,2.691,2.6892,2.6892,2.6891,2.689,2.6905,2.6906,2.6907,0,0,0,0,0,0,0,0,0,0,0,0,0,2.6849,2.685,2.6894,2.6894,2.6895,2.691,2.691,2.691,2.6892,2.6892,2.6891,2.689,2.6905,2.6906,2.6908,0,0,0,0,0,0,0,0,0,0,0,0,0,2.6867,2.685,2.6894,2.6887,2.6887,2.691,2.691,2.691,2.6893,2.6892,2.6891,2.689,2.6905,2.6906,2.6908,2.6938,0,0,2.6912,2.6913,0,0,0,0,0,0,0,0,2.6866,2.6869,2.6888,2.6888,2.6888,2.6898,2.69,2.692,2.6893,2.689,2.689,2.6889,2.6904,2.6905,2.691,2.6938,2.6939,2.6913,2.6914,2.6914,2.6915,0,0,0,0,0,0,0,2.6865,2.6868,2.69,2.6889,2.6888,2.6884,2.6885,2.6904,2.6903,2.6891,2.6889,2.6892,2.6903,2.6909,2.6911,2.6939,2.6913,2.6914,2.6915,2.6915,2.6996,2.6997,0,0,0,0,0,0,2.6865,2.6867,2.69,2.6901,2.6874,2.6886,2.6887,2.6896,2.6902,2.6902,2.6892,2.6891,2.6907,2.6909,2.6911,2.6949,2.6914,2.6916,2.6916,2.6994,2.6996,2.6997,0,0,0,0,0,0,2.6864,2.6868,2.6899,2.6884,2.6887,2.6888,2.6897,2.6897,2.6902,2.6904,2.6903,2.6898,2.6906,2.6909,2.6932,2.6949,2.6916,2.6918,2.6993,2.6995,2.6996,2.7022,0,0,0,0,0,0,2.6862,2.6867,2.6878,2.6884,2.6888,2.6919,2.6898,2.6898,2.6905,2.6903,2.6909,2.6909,2.6906,2.693,2.6934,2.695,2.6919,2.6991,2.6994,2.6996,2.702,2.7025,2.7029,0,0,0,0,0,2.6861,2.6884,2.6879,2.6883,2.6902,2.692,2.6923,2.6918,2.6906,2.6918,2.6919,2.6909,2.6946,2.6932,2.6936,2.6954,2.699,2.6993,2.6996,2.7018,2.7024,2.7029,0,0,0,0,0,0,2.6879,2.6885,2.6879,2.6905,2.6912,2.6917,2.6931,2.6924,2.6935,2.6933,2.6927,2.6928,2.6953,2.6956,2.694,2.6985,2.6966,2.697,2.6982,2.6988,2.6992,2.6991,2.692,0,0,0,0,0,2.6886,2.6901,2.6905,2.6927,2.6931,2.6931,2.6939,2.6935,2.6943,2.6945,2.6948,2.6956,2.697,2.6979,2.6991,2.702,2.7023,2.7035,2.7039,2.7043,2.7046,2.7064,2.707,2.7006,2.7006,2.7006,0,0,2.69,2.6905,2.6915,2.6931,2.6936,2.6952,2.6934,2.695,2.6962,2.6948,2.697,2.6973,2.6981,2.7008,2.702,2.7011,2.7065,2.7046,2.7049,2.7051,2.7068,2.7074,2.7079,2.7008,2.7007,2.7007,0,0,2.6935,2.694,2.696,2.6967,2.6976,2.6976,2.6981,2.6988,2.699,2.7012,2.7003,2.7017,2.704,2.7047,2.7054,2.7095,2.7087,2.7099,2.7122,2.714,2.7145,2.715,2.7166,2.7172,2.7102,2.7103,2.7103,0,2.6952,2.6975,2.6971,2.699,2.6998,2.6987,2.7009,2.7015,2.7028,2.7034,2.7024,2.7055,2.7059,2.7089,2.7099,2.7105,2.7111,2.7098,2.7145,2.7149,2.7154,2.7169,2.7175,2.7104,2.7104,2.7104,2.7104,0,2.6996,2.7013,2.7028,2.7043,2.7052,2.7072,2.7072,2.7083,2.7079,2.708,2.7105,2.7111,2.7125,2.7132,2.7128,2.7162,2.7157,2.7146,2.7127,2.7161,2.7176,2.7182,2.7106,2.7106,2.7105,2.7105,0,0,2.7041,2.7055,2.7061,2.7068,2.7079,2.7092,2.7112,2.7128,2.7138,2.7147,2.7165,2.7187,2.7178,2.7185,2.7182,2.7198,2.7232,2.7185,2.7185,2.7195,2.7273,2.7282,2.7288,2.7227,2.7228,2.7229,2.7273,0,2.7077,2.7113,2.7111,2.7144,2.7161,2.7152,2.717,2.7179,2.7182,2.7197,2.7199,2.7216,2.7202,2.7207,2.7222,2.7225,2.7248,2.7222,2.7244,2.7245,2.7243,2.7296,2.7304,2.7345,2.7278,2.7279,2.728,0,2.7124,2.7137,2.7172,2.7184,2.719,2.7206,2.7222,2.7236,2.7247,2.7248,2.7258,2.7253,2.7275,2.7256,2.7287,2.7269,2.7278,2.7282,2.7283,2.7286,2.7265,2.73,2.7358,2.7364,2.7288,2.7288,2.7287,0,2.7155,2.7181,2.7207,2.7213,2.7226,2.7238,2.7244,2.7254,2.7264,2.7278,2.7285,2.7301,2.7309,2.7322,2.7322,2.7308,2.7354,2.7335,2.7356,2.7356,2.7366,2.7365,2.7427,2.7371,2.7371,2.7371,2.737,0,2.7196,2.7218,2.7221,2.7237,2.7263,2.7261,2.7286,2.7291,2.7301,2.7318,2.7311,2.7327,2.7326,2.7343,2.7343,2.737,2.7373,2.7375,2.7375,2.7376,2.7376,2.7383,2.738,2.7372,2.7372,2.7371,2.7371,0,2.7235,2.7238,2.7265,2.7276,2.728,2.7298,2.7308,2.7323,2.7326,2.7348,2.7353,2.7358,2.7377,2.7379,2.7401,2.7401,2.7434,2.743,2.7431,2.743,2.7453,2.7451,2.752,2.753,2.7467,2.7468,2.7468,0,2.7261,2.7279,2.7292,2.7304,2.7311,2.7329,2.734,2.734,2.7352,2.7368,2.7382,2.7401,2.7416,2.7449,2.7454,2.7472,2.7469,2.7492,2.7472,2.7473,2.7471,2.7471,2.7473,2.7496,2.7497,2.7498,2.7498,0,2.7308,2.731,2.7326,2.7344,2.7358,2.7372,2.7385,2.7394,2.7396,2.741,2.7431,2.7443,2.7467,2.7487,2.7505,2.7512,2.7506,2.7505,2.7511,2.7513,2.7513,2.7515,2.7443,2.7503,2.7503,2.7502,2.7502,2.7502,2.7343,2.7359,2.7372,2.7391,2.7401,2.7414,2.743,2.7436,2.7454,2.7474,2.7473,2.7496,2.7509,2.7533,2.7541,2.756,2.7552,2.7561,2.7563,2.7565,2.7569,2.751,2.7563,2.7563,2.7563,2.7563,2.7563,0,2.7391,2.74,2.7418,2.7437,2.7453,2.7447,2.7461,2.7475,2.7496,2.7509,2.7525,2.755,2.757,2.7578,2.7598,2.7612,2.761,2.7617,2.7616,2.7618,2.7573,2.7567,2.7618,2.7618,2.7618,2.7618,2.7618,2.7618,2.7418,2.7446,2.7449,2.7483,2.7491,2.7514,2.7524,2.7536,2.7547,2.7575,2.7592,2.7598,2.7609,2.763,2.7649,2.7651,2.7659,2.7668,2.7669,2.7627,2.7621,2.7616,2.761,2.7669,2.7669,2.7712,2.7713,2.7713]}]]